Flag for Norway Weather past 2 weeks in Langesund, Norway

Now
60 °F

Cool.


Feels Like: 58 °F
Forecast: 48 / 55 °F
Wind: 9 mph from Southwest

Location: Jomfruland Fyr

Current Time: Sep 4, 2015 at 11:41:21 PM

Latest Report: Sep 4, 2015 at 8:00 PM


Visibility: N/A

Pressure: 29.70 "Hg

Humidity: 75%

Dew point: 52 °F

Location of LangesundLocation

Historic Weather in Langesund — Graph

°F

Langesund temperature yesterday

Maximum temperature yesterday: 63 °F (at 4:00 PM)
Minimum temperature yesterday: 56 °F (at 6:00 AM)
Average temperature yesterday: 59 °F

Past Weeks' High & Low Weather Summary

 TemperatureHumidityPressure
High74 °F (Aug 23, 5:00 PM)95% (Aug 25, 12:00 PM)30.36 "Hg (Aug 25, 12:00 PM)
Low53 °F (Sep 4, 7:00 AM)43% (Aug 23, 3:00 PM)29.50 "Hg (Aug 27, 2:00 PM)
Average61 °F79%29.91 "Hg
* Reported Aug 20 8:00 PM — Sep 4 8:00 PM, Langesund, Weather by CustomWeather, © 2015

Note: Actual official high and low records may vary slightly from our data, if they occured in-between our weather recording intervals... More about our weather records

Advertising

Langesund weather history for previous 24 hours

 ConditionsComfort  
Time TempWeatherWind HumidityBarometerVisibility
8:00 PM
Fri, Sep 4
60 °FCool.9 mph75%29.70 "HgN/A
7:00 PM60 °FCool.8 mph76%29.72 "HgN/A
5:00 PM61 °FCool.6 mph69%29.76 "HgN/A
4:00 PM60 °FCool.5 mph71%29.78 "HgN/A
3:00 PM61 °FCool.5 mph63%29.81 "HgN/A
2:00 PM61 °FCool.3 mph65%29.83 "HgN/A
1:00 PM61 °FCool.2 mph76%29.83 "HgN/A
12:00 PM59 °FCool.3 mph79%29.85 "HgN/A
11:00 AM57 °FCool.2 mph84%29.85 "HgN/A
10:00 AM54 °FCool.3 mph88%29.86 "HgN/A
9:00 AM54 °FCool.2 mph89%29.86 "HgN/A
8:00 AM54 °FCool.3 mph91%29.87 "HgN/A
7:00 AM53 °FCool.3 mph91%29.86 "HgN/A
6:00 AM54 °FCool.3 mph91%29.87 "HgN/A
5:00 AM54 °FCool.6 mph92%29.87 "HgN/A
4:00 AM54 °FCool.3 mph91%29.87 "HgN/A
3:00 AM55 °FCool.3 mph88%29.89 "HgN/A
2:00 AM54 °FCool.3 mph89%29.88 "HgN/A
1:00 AM55 °FCool.3 mph89%29.88 "HgN/A
12:00 AM55 °FCool.1 mph88%29.89 "HgN/A
11:00 PM
Thu, Sep 3
56 °FCool.3 mph85%29.88 "HgN/A
Weather by CustomWeather, © 2015

See weather overviewHow to use our weather pages